Location: Monteux
(44.0348°N, 4.9972°E)
Time: 14:41:21
(UTC+00:00)

Cosmos 2341 Rocket - Visible Passes

Search period start: 20 April 2021 00:00
Search period end: 30 April 2021 00:00
Orbit: 968 x 1004 km, 82.9° (Epoch: 19 April)

Date Brightness Start Highest point End Pass type
(mag) Time Alt. Az. Time Alt. Az. Time Alt. Az.
20 Apr 4.6 01:30:18 10° NNW 01:35:29 42° WNW 01:35:29 42° WNW visible
21 Apr 4.5 00:13:11 10° N 00:19:01 56° ENE 00:19:01 56° ENE visible
21 Apr 5.4 01:59:42 10° NNW 02:03:55 23° WNW 02:03:55 23° WNW visible
21 Apr 5.9 22:57:37 10° NNE 23:01:47 18° ENE 23:02:35 18° ENE visible
22 Apr 4.1 00:41:49 10° N 00:47:28 70° NW 00:47:28 70° NW visible
22 Apr 6.0 02:30:22 10° NW 02:32:21 12° WNW 02:32:21 12° WNW visible
22 Apr 5.2 23:25:20 10° N 23:30:58 32° ENE 23:31:01 32° ENE visible
23 Apr 4.7 01:10:45 10° NNW 01:15:55 41° WNW 01:15:55 41° WNW visible
23 Apr 4.4 23:53:37 10° N 23:59:29 57° ENE 23:59:29 57° ENE visible
24 Apr 5.4 01:40:11 10° NNW 01:44:23 23° WNW 01:44:23 23° WNW visible
24 Apr 5.9 22:38:01 10° NNE 22:42:16 18° ENE 22:43:04 18° ENE visible
25 Apr 4.1 00:22:15 10° N 00:27:57 70° NW 00:27:57 70° NW visible
25 Apr 6.0 02:10:55 10° NW 02:12:51 12° WNW 02:12:51 12° WNW visible
25 Apr 5.1 23:05:46 10° N 23:11:26 33° ENE 23:11:33 33° ENE visible
26 Apr 4.7 00:51:13 10° NNW 00:56:27 41° WNW 00:56:27 41° WNW visible
26 Apr 4.3 23:34:04 10° N 23:40:03 59° ENE 23:40:03 59° ENE visible
27 Apr 5.5 01:20:39 10° NNW 01:24:56 23° WNW 01:24:56 23° WNW visible
27 Apr 5.8 22:18:24 10° NNE 22:22:44 19° ENE 22:23:39 18° ENE visible
28 Apr 4.1 00:02:41 10° N 00:08:33 72° NW 00:08:33 72° NW visible
28 Apr 6.1 01:51:30 10° WNW 01:53:26 12° WNW 01:53:26 12° WNW visible
28 Apr 5.1 22:46:11 10° N 22:51:54 33° ENE 22:52:10 33° ENE visible
29 Apr 4.7 00:31:41 10° NNW 00:37:04 41° WNW 00:37:04 41° WNW visible
29 Apr 4.3 23:14:30 10° N 23:20:41 60° ENE 23:20:41 60° ENE visible
